Weather History for Faribault, MN

Change the Weather History Date:

Sunday, March 16, 2014

  Actual Average Record
Temperature  
Mean Temperature 20 °F -  
Max Temperature 28 °F 39 °F 78 °F (2012)
Min Temperature 12 °F 20 °F -7 °F (1951)
Degree Days  
Heating Degree Days 45    
Moisture  
Dew Point 5 °F    
Average Humidity 49    
Maximum Humidity 59    
Minimum Humidity 34    
Precipitation  
Precipitation 0.00 in - - ()
Sea Level Pressure  
Sea Level Pressure 30.32 in    
Wind  
Wind Speed 7 mph (East)    
Max Wind Speed 15 mph    
Max Gust Speed 21 mph    
Visibility 10 miles    
Events      
Averages and records for this station are not official NWS values.
T = Trace of Precipitation, MM = Missing Value Source: NWS Daily Summary

Daily Weather History Graph

Daily Weather History Graph

Search for Another Location

Airport:

Trip Planner

Search our weather history database for the weather conditions in past years. The results will help you decide how hot, cold, wet, or windy it might be!

Date:

Astronomy

Mar. 16, 2014 Rise Set
Actual Time 7:23 AM CDT 7:20 PM CDT
Civil Twilight 6:54 AM CDT 7:49 PM CDT
Nautical Twilight 6:21 AM CDT 8:23 PM CDT
Astronomical Twilight 5:46 AM CDT 8:57 PM CDT
Moon 7:40 PM CDT (3/16) 7:06 AM CDT (3/16)
Length of Visible Light 12h 54m
Length of Day
11h 57m
Full, 100% of the Moon is Illuminated
Mar 16
Full
Mar 16
Full
Mar 23
Last Quarter
Mar 30
New
Apr 7
First Quarter

Hourly Weather History & Observations

Time (CDT) Temp. Windchill Dew Point Humidity Pressure Visibility Wind Dir Wind Speed Gust Speed Precip Events Conditions
12:13 AM 24.8 °F 16.1 °F 6.8 °F 46% 30.37 in 10.0 mi NNE 8.1 mph - N/A   Clear
12:34 AM 24.8 °F 14.0 °F 6.8 °F 46% 30.37 in 10.0 mi North 11.5 mph 16.1 mph N/A   Clear
12:54 AM 24.8 °F 16.1 °F 6.8 °F 46% 30.38 in 10.0 mi North 8.1 mph - N/A   Clear
1:13 AM 23.0 °F 13.9 °F 6.8 °F 50% 30.39 in 10.0 mi NNE 8.1 mph - N/A   Clear
1:34 AM 21.2 °F 10.9 °F 6.8 °F 54% 30.40 in 10.0 mi NNE 9.2 mph - N/A   Clear
1:54 AM 21.2 °F 10.9 °F 6.8 °F 54% 30.40 in 10.0 mi NNE 9.2 mph - N/A   Clear
2:14 AM 21.2 °F 11.7 °F 6.8 °F 54% 30.40 in 10.0 mi NNE 8.1 mph - N/A   Clear
2:34 AM 21.2 °F 10.9 °F 5.0 °F 50% 30.42 in 10.0 mi NNE 9.2 mph - N/A   Clear
2:54 AM 19.4 °F 10.4 °F 5.0 °F 54% 30.43 in 10.0 mi NNE 6.9 mph - N/A   Clear
3:14 AM 19.4 °F 10.4 °F 5.0 °F 54% 30.43 in 10.0 mi NNE 6.9 mph - N/A   Clear
3:34 AM 19.4 °F 10.4 °F 3.2 °F 49% 30.43 in 10.0 mi NNE 6.9 mph - N/A   Clear
3:53 AM 17.6 °F 9.3 °F 3.2 °F 53% 30.42 in 10.0 mi NNE 5.8 mph - N/A   Clear
4:14 AM 17.6 °F 8.2 °F 1.4 °F 49% 30.42 in 10.0 mi NNE 6.9 mph - N/A   Clear
4:34 AM 17.6 °F 8.2 °F 1.4 °F 49% 30.42 in 10.0 mi NNE 6.9 mph - N/A   Clear
4:54 AM 15.8 °F 6.1 °F 1.4 °F 53% 30.42 in 10.0 mi NE 6.9 mph - N/A   Clear
5:14 AM 15.8 °F 5.1 °F -0.4 °F 49% 30.43 in 10.0 mi NE 8.1 mph - N/A   Clear
5:33 AM 15.8 °F 7.2 °F -0.4 °F 49% 30.43 in 10.0 mi NE 5.8 mph - N/A   Clear
5:54 AM 15.8 °F 6.1 °F -2.2 °F 45% 30.42 in 10.0 mi NNE 6.9 mph - N/A   Clear
6:14 AM 15.8 °F 7.2 °F -2.2 °F 45% 30.42 in 10.0 mi NNE 5.8 mph - N/A   Clear
6:34 AM 14.0 °F 5.1 °F -2.2 °F 49% 30.42 in 10.0 mi NNE 5.8 mph - N/A   Clear
6:54 AM 14.0 °F 6.5 °F -0.4 °F 53% 30.42 in 10.0 mi NNE 4.6 mph - N/A   Clear
7:14 AM 12.2 °F 4.3 °F -2.2 °F 53% 30.42 in 10.0 mi NNE 4.6 mph - N/A   Clear
7:34 AM 12.2 °F 6.1 °F -2.2 °F 53% 30.42 in 10.0 mi NNE 3.5 mph - N/A   Clear
7:54 AM 12.2 °F 4.3 °F -2.2 °F 53% 30.43 in 10.0 mi NNE 4.6 mph - N/A   Clear
8:14 AM 14.0 °F 6.5 °F -2.2 °F 49% 30.44 in 10.0 mi NNE 4.6 mph - N/A   Clear
8:34 AM 15.8 °F 10.2 °F -2.2 °F 45% 30.44 in 10.0 mi NNE 3.5 mph - N/A   Clear
8:54 AM 15.8 °F 7.2 °F -2.2 °F 45% 30.44 in 10.0 mi NE 5.8 mph - N/A   Clear
9:14 AM 15.8 °F 7.2 °F -2.2 °F 45% 30.45 in 10.0 mi ENE 5.8 mph - N/A   Clear
9:34 AM 15.8 °F 5.1 °F -0.4 °F 49% 30.45 in 10.0 mi ENE 8.1 mph - N/A   Clear
9:54 AM 17.6 °F 9.3 °F -0.4 °F 45% 30.44 in 10.0 mi ENE 5.8 mph - N/A   Clear
10:14 AM 17.6 °F 10.7 °F 1.4 °F 49% 30.44 in 10.0 mi East 4.6 mph - N/A   Clear
10:34 AM 19.4 °F 10.4 °F 3.2 °F 49% 30.44 in 10.0 mi East 6.9 mph - N/A   Clear
10:54 AM 19.4 °F 9.5 °F 3.2 °F 49% 30.44 in 10.0 mi East 8.1 mph - N/A   Clear
11:14 AM 19.4 °F 10.4 °F 3.2 °F 49% 30.44 in 10.0 mi East 6.9 mph - N/A   Clear
11:34 AM 19.4 °F 11.5 °F 5.0 °F 54% 30.42 in 10.0 mi ENE 5.8 mph - N/A   Clear
11:54 AM 21.2 °F - 6.8 °F 54% 30.42 in 10.0 mi Calm Calm - N/A   Clear
12:14 PM 21.2 °F 12.6 °F 8.6 °F 58% 30.39 in 10.0 mi ENE 6.9 mph - N/A   Clear
12:34 PM 23.0 °F 14.7 °F 8.6 °F 54% 30.38 in 10.0 mi East 6.9 mph - N/A   Clear
12:54 PM 23.0 °F 15.8 °F 8.6 °F 54% 30.38 in 10.0 mi East 5.8 mph - N/A   Clear
1:14 PM 24.8 °F 20.5 °F 8.6 °F 50% 30.37 in 10.0 mi ESE 3.5 mph - N/A   Clear
1:34 PM 24.8 °F - 8.6 °F 50% 30.36 in 10.0 mi Calm Calm - N/A   Clear
1:54 PM 24.8 °F 17.9 °F 10.4 °F 54% 30.34 in 10.0 mi East 5.8 mph - N/A   Clear
2:14 PM 26.6 °F 19.1 °F 10.4 °F 51% 30.32 in 10.0 mi NE 6.9 mph - N/A   Clear
2:33 PM 26.6 °F 20.0 °F 10.4 °F 51% 30.31 in 10.0 mi SE 5.8 mph - N/A   Clear
2:54 PM 26.6 °F 20.0 °F 8.6 °F 47% 30.31 in 10.0 mi East 5.8 mph - N/A   Clear
3:14 PM 26.6 °F 20.0 °F 8.6 °F 47% 30.30 in 10.0 mi ESE 5.8 mph - N/A   Clear
3:34 PM 26.6 °F - 6.8 °F 43% 30.29 in 10.0 mi Calm Calm - N/A   Clear
3:54 PM 28.4 °F 23.3 °F 6.8 °F 40% 30.27 in 10.0 mi SE 4.6 mph - N/A   Clear
4:14 PM 28.4 °F - 6.8 °F 40% 30.27 in 10.0 mi Calm Calm - N/A   Clear
4:34 PM 28.4 °F - 6.8 °F 40% 30.27 in 10.0 mi Calm Calm - N/A   Clear
4:54 PM 28.4 °F 23.3 °F 8.6 °F 43% 30.27 in 10.0 mi SSW 4.6 mph - N/A   Clear
5:13 PM 28.4 °F 23.3 °F 6.8 °F 40% 30.25 in 10.0 mi SSE 4.6 mph - N/A   Clear
5:34 PM 28.4 °F 22.2 °F 3.2 °F 34% 30.25 in 10.0 mi South 5.8 mph - N/A   Clear
5:54 PM 28.4 °F 21.2 °F 6.8 °F 40% 30.24 in 10.0 mi South 6.9 mph - N/A   Clear
6:14 PM 28.4 °F 19.7 °F 6.8 °F 40% 30.22 in 10.0 mi South 9.2 mph - N/A   Clear
6:34 PM 26.6 °F 17.5 °F 6.8 °F 43% 30.21 in 10.0 mi South 9.2 mph - N/A   Clear
6:54 PM 26.6 °F 20.0 °F 6.8 °F 43% 30.19 in 10.0 mi SSE 5.8 mph - N/A   Clear
7:14 PM 26.6 °F 18.2 °F 8.6 °F 47% 30.19 in 10.0 mi SE 8.1 mph - N/A   Clear
7:34 PM 26.6 °F 19.1 °F 8.6 °F 47% 30.18 in 10.0 mi SE 6.9 mph - N/A   Clear
7:54 PM 26.6 °F 20.0 °F 8.6 °F 47% 30.17 in 10.0 mi SE 5.8 mph - N/A   Clear
8:14 PM 26.6 °F 18.2 °F 10.4 °F 51% 30.16 in 10.0 mi SE 8.1 mph - N/A   Clear
8:34 PM 24.8 °F 16.1 °F 10.4 °F 54% 30.15 in 10.0 mi SE 8.1 mph - N/A   Clear
8:54 PM 26.6 °F 16.2 °F 10.4 °F 51% 30.13 in 10.0 mi SE 11.5 mph - N/A   Mostly Cloudy
9:14 PM 26.6 °F 17.5 °F 10.4 °F 51% 30.12 in 10.0 mi SE 9.2 mph - N/A   Overcast
9:34 PM 24.8 °F 14.6 °F 10.4 °F 54% 30.11 in 10.0 mi SE 10.4 mph - N/A   Mostly Cloudy
9:53 PM 26.6 °F 17.5 °F 10.4 °F 51% 30.10 in 10.0 mi SSE 9.2 mph - N/A   Mostly Cloudy
10:14 PM 24.8 °F 13.4 °F 10.4 °F 54% 30.08 in 10.0 mi SSE 12.7 mph - N/A   Overcast
10:34 PM 24.8 °F 14.6 °F 10.4 °F 54% 30.06 in 10.0 mi SSE 10.4 mph - N/A   Overcast
10:53 PM 24.8 °F 14.0 °F 10.4 °F 54% 30.06 in 10.0 mi SSE 11.5 mph 16.1 mph N/A   Overcast
11:14 PM 24.8 °F 12.4 °F 10.4 °F 54% 30.04 in 10.0 mi SSE 15.0 mph 20.7 mph N/A   Scattered Clouds
11:34 PM 24.8 °F 13.4 °F 12.2 °F 59% 30.04 in 10.0 mi SSE 12.7 mph 18.4 mph N/A   Mostly Cloudy
11:54 PM 24.8 °F 12.9 °F 10.4 °F 54% 30.03 in 10.0 mi SSE 13.8 mph 18.4 mph N/A   Overcast